Weather History for Montauk, NY

Change the Weather History Date:

Monday, December 19, 2011

  Actual Average (KHTO) Record (KHTO)
Temperature  
Mean Temperature 33 °F -  
Max Temperature 48 °F 41 °F 56 °F (1990)
Min Temperature 18 °F 24 °F 11 °F (1932)
Degree Days  
Heating Degree Days 32    
Moisture  
Dew Point 27 °F    
Average Humidity 61    
Maximum Humidity 68    
Minimum Humidity 51    
Precipitation  
Precipitation 0.00 in - - ()
Sea Level Pressure  
Sea Level Pressure 30.12 in    
Wind  
Wind Speed 6 mph (SW)    
Max Wind Speed 17 mph    
Max Gust Speed 30 mph    
Averages and records for this station are not official NWS values.
T = Trace of Precipitation, MM = Missing Value Source: NWS Daily Summary

Daily Weather History Graph

Daily Weather History Graph

Search for Another Location

Airport:

Trip Planner

Search our weather history database for the weather conditions in past years. The results will help you decide how hot, cold, wet, or windy it might be!

Date:

Astronomy

Dec. 19, 2011 Rise Set
Actual Time 7:08 AM EST 4:21 PM EST
Civil Twilight 6:36 AM EST 4:52 PM EST
Nautical Twilight 6:02 AM EST 5:27 PM EST
Astronomical Twilight 5:28 AM EST 6:00 PM EST
Moon 1:12 AM EST (12/19) 12:19 PM EST (12/19)
Length of Visible Light 10h 15m
Length of Day
9h 13m
Waning Crescent, 31% of the Moon is Illuminated
Dec 19
Waning Crescent
Dec 24
New
Jan 1
First Quarter
Jan 9
Full
Jan 16
Last Quarter

Hourly Weather History & Observations

Time (EST) Temp. Windchill Dew Point Humidity Pressure Visibility Wind Dir Wind Speed Gust Speed Precip Events Conditions
12:54 AM 24.1 °F - 8.1 °F 51% 30.29 in - Calm Calm - N/A   Unknown
1:54 AM 18.0 °F - 8.1 °F 65% 30.28 in - Calm Calm - N/A   Unknown
2:54 AM 19.0 °F - 10.0 °F 68% 30.29 in - Calm Calm - N/A   Unknown
3:54 AM 21.0 °F - 10.9 °F 65% 30.29 in - Calm Calm - N/A   Unknown
4:54 AM 28.9 °F - 15.1 °F 56% 30.29 in - Calm Calm - N/A   Unknown
5:54 AM 28.0 °F 22.8 °F 12.9 °F 53% 30.27 in - SSW 4.6 mph - N/A   Unknown
6:54 AM 28.9 °F 23.9 °F 14.0 °F 54% 30.27 in - SW 4.6 mph - N/A   Unknown
7:54 AM 32.0 °F 28.7 °F 19.0 °F 59% 30.25 in - SW 3.5 mph - N/A   Unknown
8:54 AM 37.9 °F 31.5 °F 25.0 °F 60% 30.24 in - SW 9.2 mph - N/A   Unknown
9:54 AM 41.0 °F 34.7 °F 28.0 °F 60% 30.21 in - SW 10.4 mph - N/A   Unknown
10:54 AM 43.0 °F 36.4 °F 30.0 °F 60% 30.17 in - SW 12.7 mph 21.9 mph N/A   Unknown
11:54 AM 44.1 °F 37.4 °F 30.0 °F 58% 30.14 in - SW 13.8 mph 27.6 mph N/A   Unknown
12:54 PM 45.0 °F 38.2 °F 32.0 °F 60% 30.11 in - SW 15.0 mph 25.3 mph N/A   Unknown
1:54 PM 46.0 °F 39.6 °F 34.0 °F 63% 30.04 in - SSW 15.0 mph 27.6 mph N/A   Unknown
2:54 PM 46.9 °F - 35.1 °F 63% 30.02 in - SW 11.5 mph 26.5 mph N/A   Unknown
3:54 PM 46.9 °F - 36.0 °F 66% 29.99 in - SW 15.0 mph 29.9 mph N/A   Unknown
4:54 PM 48.0 °F - 37.9 °F 68% 29.99 in - SW 13.8 mph 27.6 mph N/A   Unknown
5:54 PM 48.9 °F - 37.9 °F 66% 29.98 in - SW 17.3 mph 28.8 mph N/A   Unknown
6:54 PM 48.0 °F - 37.9 °F 68% 29.98 in - SW 12.7 mph 26.5 mph N/A   Unknown
7:54 PM 48.0 °F - 37.0 °F 66% 29.98 in - SW 15.0 mph 26.5 mph N/A   Unknown
8:54 PM 48.9 °F - 36.0 °F 61% 29.96 in - WSW 15.0 mph 25.3 mph N/A   Unknown
9:54 PM 48.0 °F - 35.1 °F 61% 29.96 in - WSW 11.5 mph 21.9 mph N/A   Unknown
10:54 PM 48.0 °F - 33.1 °F 56% 29.94 in - WSW 15.0 mph 28.8 mph N/A   Unknown
11:54 PM 48.0 °F - 33.1 °F 56% 29.94 in - WSW 12.7 mph 20.7 mph N/A   Unknown